Year,Month,Day,Hour,Minute,Value (Times are PST for temperature in C)
2010,08,15,00,00,18.40
2010,08,15,00,01,18.40
2010,08,15,00,02,18.40
2010,08,15,00,03,18.40
2010,08,15,00,04,18.30
2010,08,15,00,05,18.30
2010,08,15,00,06,18.30
2010,08,15,00,07,18.30
2010,08,15,00,08,18.30
2010,08,15,00,09,18.30
2010,08,15,00,10,18.30
2010,08,15,00,11,18.30
2010,08,15,00,12,18.30
2010,08,15,00,13,18.30
2010,08,15,00,14,18.20
2010,08,15,00,15,18.20
2010,08,15,00,16,18.20
2010,08,15,00,17,18.20
2010,08,15,00,18,18.20
2010,08,15,00,19,18.20
2010,08,15,00,20,18.20
2010,08,15,00,21,18.20
2010,08,15,00,22,18.20
2010,08,15,00,23,18.10
2010,08,15,00,24,18.10
2010,08,15,00,25,18.10
2010,08,15,00,26,18.10
2010,08,15,00,27,18.10
2010,08,15,00,28,18.10
2010,08,15,00,29,18.10
2010,08,15,00,30,18.10
2010,08,15,00,31,18.10
2010,08,15,00,32,18.10
2010,08,15,00,33,18.10
2010,08,15,00,34,18.10
2010,08,15,00,35,18.00
2010,08,15,00,36,18.00
2010,08,15,00,37,18.00
2010,08,15,00,38,18.00
2010,08,15,00,39,18.00
2010,08,15,00,40,18.00
2010,08,15,00,41,18.00
2010,08,15,00,42,17.90
2010,08,15,00,43,17.90
2010,08,15,00,44,17.90
2010,08,15,00,45,17.90
2010,08,15,00,46,17.90
2010,08,15,00,47,17.90
2010,08,15,00,48,17.90
2010,08,15,00,49,17.90
2010,08,15,00,50,17.90
2010,08,15,00,51,17.80
2010,08,15,00,52,17.80
2010,08,15,00,53,17.80
2010,08,15,00,54,17.80
2010,08,15,00,55,17.80
2010,08,15,00,56,17.80
2010,08,15,00,57,17.80
2010,08,15,00,58,17.80
2010,08,15,00,59,17.80
2010,08,15,01,00,17.80
2010,08,15,01,01,17.80
2010,08,15,01,02,17.70
2010,08,15,01,03,17.70
2010,08,15,01,04,17.70
2010,08,15,01,05,17.70
2010,08,15,01,06,17.70
2010,08,15,01,07,17.70
2010,08,15,01,08,17.70
2010,08,15,01,09,17.70
2010,08,15,01,10,17.70
2010,08,15,01,11,17.70
2010,08,15,01,12,17.70
2010,08,15,01,13,17.70
2010,08,15,01,14,17.70
2010,08,15,01,15,17.70
2010,08,15,01,16,17.70
2010,08,15,01,17,17.70
2010,08,15,01,18,17.70
2010,08,15,01,19,17.70
2010,08,15,01,20,17.70
2010,08,15,01,21,17.70
2010,08,15,01,22,17.70
2010,08,15,01,23,17.60
2010,08,15,01,24,17.60
2010,08,15,01,25,17.60
2010,08,15,01,26,17.60
2010,08,15,01,27,17.60
2010,08,15,01,28,17.60
2010,08,15,01,29,17.60
2010,08,15,01,30,17.60
2010,08,15,01,31,17.60
2010,08,15,01,32,17.60
2010,08,15,01,33,17.60
2010,08,15,01,34,17.50
2010,08,15,01,35,17.50
2010,08,15,01,36,17.50
2010,08,15,01,37,17.50
2010,08,15,01,38,17.50
2010,08,15,01,39,17.50
2010,08,15,01,40,17.50
2010,08,15,01,41,17.50
2010,08,15,01,42,17.50
2010,08,15,01,43,17.40
2010,08,15,01,44,17.40
2010,08,15,01,45,17.40
2010,08,15,01,46,17.40
2010,08,15,01,47,17.40
2010,08,15,01,48,17.40
2010,08,15,01,49,17.30
2010,08,15,01,50,17.30
2010,08,15,01,51,17.30
2010,08,15,01,52,17.30
2010,08,15,01,53,17.30
2010,08,15,01,54,17.30
2010,08,15,01,55,17.30
2010,08,15,01,56,17.30
2010,08,15,01,57,17.30
2010,08,15,01,58,17.30
2010,08,15,01,59,17.30
2010,08,15,02,00,17.30
2010,08,15,02,01,17.20
2010,08,15,02,02,17.20
2010,08,15,02,03,17.20
2010,08,15,02,04,17.20
2010,08,15,02,05,17.20
2010,08,15,02,06,17.20
2010,08,15,02,07,17.20
2010,08,15,02,08,17.20
2010,08,15,02,09,17.20
2010,08,15,02,10,17.20
2010,08,15,02,11,17.20
2010,08,15,02,12,17.20
2010,08,15,02,13,17.20
2010,08,15,02,14,17.20
2010,08,15,02,15,17.20
2010,08,15,02,16,17.20
2010,08,15,02,17,17.20
2010,08,15,02,18,17.10
2010,08,15,02,19,17.10
2010,08,15,02,20,17.10
2010,08,15,02,21,17.10
2010,08,15,02,22,17.10
2010,08,15,02,23,17.10
2010,08,15,02,24,17.10
2010,08,15,02,25,17.10
2010,08,15,02,26,17.00
2010,08,15,02,27,17.10
2010,08,15,02,28,17.00
2010,08,15,02,29,17.10
2010,08,15,02,30,17.10
2010,08,15,02,31,17.10
2010,08,15,02,32,17.10
2010,08,15,02,33,17.10
2010,08,15,02,34,17.10
2010,08,15,02,35,17.10
2010,08,15,02,36,17.10
2010,08,15,02,37,17.10
2010,08,15,02,38,17.10
2010,08,15,02,39,17.10
2010,08,15,02,40,17.10
2010,08,15,02,41,17.10
2010,08,15,02,42,17.10
2010,08,15,02,43,17.10
2010,08,15,02,44,17.10
2010,08,15,02,45,17.10
2010,08,15,02,46,17.10
2010,08,15,02,47,17.10
2010,08,15,02,48,17.10
2010,08,15,02,49,17.10
2010,08,15,02,50,17.10
2010,08,15,02,51,17.10
2010,08,15,02,52,17.10
2010,08,15,02,53,17.10
2010,08,15,02,54,17.10
2010,08,15,02,55,17.10
2010,08,15,02,56,17.10
2010,08,15,02,57,17.00
2010,08,15,02,58,17.00
2010,08,15,02,59,17.00
2010,08,15,03,00,16.90
2010,08,15,03,01,16.90
2010,08,15,03,02,16.90
2010,08,15,03,03,16.90
2010,08,15,03,04,16.90
2010,08,15,03,05,16.80
2010,08,15,03,06,16.80
2010,08,15,03,07,16.80
2010,08,15,03,08,16.80
2010,08,15,03,09,16.80
2010,08,15,03,10,16.80
2010,08,15,03,11,16.80
2010,08,15,03,12,16.80
2010,08,15,03,13,16.80
2010,08,15,03,14,16.80
2010,08,15,03,15,16.70
2010,08,15,03,16,16.70
2010,08,15,03,17,16.70
2010,08,15,03,18,16.70
2010,08,15,03,19,16.70
2010,08,15,03,20,16.70
2010,08,15,03,21,16.70
2010,08,15,03,22,16.60
2010,08,15,03,23,16.60
2010,08,15,03,24,16.60
2010,08,15,03,25,16.60
2010,08,15,03,26,16.60
2010,08,15,03,27,16.60
2010,08,15,03,28,16.50
2010,08,15,03,29,16.50
2010,08,15,03,30,16.50
2010,08,15,03,31,16.50
2010,08,15,03,32,16.50
2010,08,15,03,33,16.50
2010,08,15,03,34,16.50
2010,08,15,03,35,16.50
2010,08,15,03,36,16.40
2010,08,15,03,37,16.40
2010,08,15,03,38,16.40
2010,08,15,03,39,16.40
2010,08,15,03,40,16.40
2010,08,15,03,41,16.40
2010,08,15,03,42,16.40
2010,08,15,03,43,16.40
2010,08,15,03,44,16.40
2010,08,15,03,45,16.40
2010,08,15,03,46,16.40
2010,08,15,03,47,16.40
2010,08,15,03,48,16.30
2010,08,15,03,49,16.30
2010,08,15,03,50,16.30
2010,08,15,03,51,16.30
2010,08,15,03,52,16.30
2010,08,15,03,53,16.30
2010,08,15,03,54,16.30
2010,08,15,03,55,16.30
2010,08,15,03,56,16.30
2010,08,15,03,57,16.30
2010,08,15,03,58,16.30
2010,08,15,03,59,16.30
2010,08,15,04,00,16.30
2010,08,15,04,01,16.30
2010,08,15,04,02,16.30
2010,08,15,04,03,16.30
2010,08,15,04,04,16.30
2010,08,15,04,05,16.30
2010,08,15,04,06,16.30
2010,08,15,04,07,16.30
2010,08,15,04,08,16.30
2010,08,15,04,09,16.30
2010,08,15,04,10,16.30
2010,08,15,04,11,16.30
2010,08,15,04,12,16.30
2010,08,15,04,13,16.30
2010,08,15,04,14,16.20
2010,08,15,04,15,16.20
2010,08,15,04,16,16.20
2010,08,15,04,17,16.20
2010,08,15,04,18,16.20
2010,08,15,04,19,16.10
2010,08,15,04,20,16.10
2010,08,15,04,21,16.10
2010,08,15,04,22,16.10
2010,08,15,04,23,16.10
2010,08,15,04,24,16.10
2010,08,15,04,25,16.10
2010,08,15,04,26,16.10
2010,08,15,04,27,16.00
2010,08,15,04,28,16.00
2010,08,15,04,29,16.00
2010,08,15,04,30,16.00
2010,08,15,04,31,16.00
2010,08,15,04,32,16.00
2010,08,15,04,33,16.10
2010,08,15,04,34,16.10
2010,08,15,04,35,16.10
2010,08,15,04,36,16.10
2010,08,15,04,37,16.10
2010,08,15,04,38,16.00
2010,08,15,04,39,16.00
2010,08,15,04,40,16.00
2010,08,15,04,41,16.00
2010,08,15,04,42,16.00
2010,08,15,04,43,16.00
2010,08,15,04,44,16.00
2010,08,15,04,45,16.00
2010,08,15,04,46,16.00
2010,08,15,04,47,16.00
2010,08,15,04,48,16.10
2010,08,15,04,49,16.10
2010,08,15,04,50,16.10
2010,08,15,04,51,16.10
2010,08,15,04,52,16.10
2010,08,15,04,53,16.10
2010,08,15,04,54,16.10
2010,08,15,04,55,16.10
2010,08,15,04,56,16.10
2010,08,15,04,57,16.10
2010,08,15,04,58,16.20
2010,08,15,04,59,16.20
2010,08,15,05,00,16.20
2010,08,15,05,01,16.30
2010,08,15,05,02,16.30
2010,08,15,05,03,16.40
2010,08,15,05,04,16.40
2010,08,15,05,05,16.50
2010,08,15,05,06,16.50
2010,08,15,05,07,16.60
2010,08,15,05,08,16.60
2010,08,15,05,09,16.70
2010,08,15,05,10,16.70
2010,08,15,05,11,16.70
2010,08,15,05,12,16.70
2010,08,15,05,13,16.80
2010,08,15,05,14,16.80
2010,08,15,05,15,16.80
2010,08,15,05,16,16.80
2010,08,15,05,17,16.80
2010,08,15,05,18,16.80
2010,08,15,05,19,16.80
2010,08,15,05,20,16.80
2010,08,15,05,21,16.70
2010,08,15,05,22,16.80
2010,08,15,05,23,16.70
2010,08,15,05,24,16.70
2010,08,15,05,25,16.70
2010,08,15,05,26,16.70
2010,08,15,05,27,16.70
2010,08,15,05,28,16.70
2010,08,15,05,29,16.70
2010,08,15,05,30,16.80
2010,08,15,05,31,16.80
2010,08,15,05,32,16.80
2010,08,15,05,33,16.80
2010,08,15,05,34,16.80
2010,08,15,05,35,16.90
2010,08,15,05,36,16.90
2010,08,15,05,37,17.00
2010,08,15,05,38,17.10
2010,08,15,05,39,17.10
2010,08,15,05,40,17.20
2010,08,15,05,41,17.30
2010,08,15,05,42,17.30
2010,08,15,05,43,17.40
2010,08,15,05,44,17.50
2010,08,15,05,45,17.50
2010,08,15,05,46,17.60
2010,08,15,05,47,17.70
2010,08,15,05,48,17.70
2010,08,15,05,49,17.70
2010,08,15,05,50,17.80
2010,08,15,05,51,17.80
2010,08,15,05,52,17.80
2010,08,15,05,53,17.80
2010,08,15,05,54,17.90
2010,08,15,05,55,17.90
2010,08,15,05,56,17.90
2010,08,15,05,57,17.90
2010,08,15,05,58,17.90
2010,08,15,05,59,17.90
2010,08,15,06,00,17.90
2010,08,15,06,01,17.90
2010,08,15,06,02,17.90
2010,08,15,06,03,18.00
2010,08,15,06,04,18.00
2010,08,15,06,05,18.00
2010,08,15,06,06,18.00
2010,08,15,06,07,18.00
2010,08,15,06,08,18.00
2010,08,15,06,09,18.10
2010,08,15,06,10,18.10
2010,08,15,06,11,18.10
2010,08,15,06,12,18.10
2010,08,15,06,13,18.10
2010,08,15,06,14,18.10
2010,08,15,06,15,18.10
2010,08,15,06,16,18.00
2010,08,15,06,17,17.90
2010,08,15,06,18,17.90
2010,08,15,06,19,17.80
2010,08,15,06,20,17.70
2010,08,15,06,21,17.60
2010,08,15,06,22,17.60
2010,08,15,06,23,17.50
2010,08,15,06,24,17.40
2010,08,15,06,25,17.30
2010,08,15,06,26,17.20
2010,08,15,06,27,17.10
2010,08,15,06,28,17.10
2010,08,15,06,29,17.00
2010,08,15,06,30,16.90
2010,08,15,06,31,16.90
2010,08,15,06,32,16.90
2010,08,15,06,33,16.90
2010,08,15,06,34,16.90
2010,08,15,06,35,16.90
2010,08,15,06,36,16.90
2010,08,15,06,37,17.00
2010,08,15,06,38,17.00
2010,08,15,06,39,17.00
2010,08,15,06,40,17.10
2010,08,15,06,41,17.20
2010,08,15,06,42,17.20
2010,08,15,06,43,17.20
2010,08,15,06,44,17.30
2010,08,15,06,45,17.30
2010,08,15,06,46,17.30
2010,08,15,06,47,17.30
2010,08,15,06,48,17.30
2010,08,15,06,49,17.30
2010,08,15,06,50,17.30
2010,08,15,06,51,17.30
2010,08,15,06,52,17.30
2010,08,15,06,53,17.30
2010,08,15,06,54,17.30
2010,08,15,06,55,17.30
2010,08,15,06,56,17.30
2010,08,15,06,57,17.30
2010,08,15,06,58,17.30
2010,08,15,06,59,17.40
2010,08,15,07,00,17.40
2010,08,15,07,01,17.40
2010,08,15,07,02,17.50
2010,08,15,07,03,17.60
2010,08,15,07,04,17.60
2010,08,15,07,05,17.70
2010,08,15,07,06,17.70
2010,08,15,07,07,17.70
2010,08,15,07,08,17.80
2010,08,15,07,09,17.80
2010,08,15,07,10,17.70
2010,08,15,07,11,17.70
2010,08,15,07,12,17.70
2010,08,15,07,13,17.70
2010,08,15,07,14,17.80
2010,08,15,07,15,17.90
2010,08,15,07,16,17.90
2010,08,15,07,17,18.00
2010,08,15,07,18,18.00
2010,08,15,07,19,18.10
2010,08,15,07,20,18.20
2010,08,15,07,21,18.20
2010,08,15,07,22,18.20
2010,08,15,07,23,18.30
2010,08,15,07,24,18.30
2010,08,15,07,25,18.30
2010,08,15,07,26,18.40
2010,08,15,07,27,18.40
2010,08,15,07,28,18.40
2010,08,15,07,29,18.50
2010,08,15,07,30,18.50
2010,08,15,07,31,18.60
2010,08,15,07,32,18.60
2010,08,15,07,33,18.70
2010,08,15,07,34,18.70
2010,08,15,07,35,18.70
2010,08,15,07,36,18.70
2010,08,15,07,37,18.70
2010,08,15,07,38,18.80
2010,08,15,07,39,18.80
2010,08,15,07,40,18.80
2010,08,15,07,41,18.80
2010,08,15,07,42,18.90
2010,08,15,07,43,18.90
2010,08,15,07,44,18.90
2010,08,15,07,45,18.90
2010,08,15,07,46,18.90
2010,08,15,07,47,18.90
2010,08,15,07,48,18.90
2010,08,15,07,49,18.90
2010,08,15,07,50,19.00
2010,08,15,07,51,19.00
2010,08,15,07,52,19.00
2010,08,15,07,53,19.10
2010,08,15,07,54,19.10
2010,08,15,07,55,19.10
2010,08,15,07,56,19.10
2010,08,15,07,57,19.20
2010,08,15,07,58,19.20
2010,08,15,07,59,19.20
2010,08,15,08,00,19.20
2010,08,15,08,01,19.20
2010,08,15,08,02,19.30
2010,08,15,08,03,19.30
2010,08,15,08,04,19.30
2010,08,15,08,05,19.30
2010,08,15,08,06,19.40
2010,08,15,08,07,19.40
2010,08,15,08,08,19.50
2010,08,15,08,09,19.50
2010,08,15,08,10,19.60
2010,08,15,08,11,19.70
2010,08,15,08,12,19.80
2010,08,15,08,13,19.90
2010,08,15,08,14,20.10
2010,08,15,08,15,20.30
2010,08,15,08,16,20.40
2010,08,15,08,17,20.60
2010,08,15,08,18,20.80
2010,08,15,08,19,20.90
2010,08,15,08,20,20.90
2010,08,15,08,21,21.00
2010,08,15,08,22,21.10
2010,08,15,08,23,21.10
2010,08,15,08,24,21.20
2010,08,15,08,25,21.20
2010,08,15,08,26,21.30
2010,08,15,08,27,21.30
2010,08,15,08,28,21.30
2010,08,15,08,29,21.30
2010,08,15,08,30,21.30
2010,08,15,08,31,21.40
2010,08,15,08,32,21.40
2010,08,15,08,33,21.40
2010,08,15,08,34,21.50
2010,08,15,08,35,21.50
2010,08,15,08,36,21.50
2010,08,15,08,37,21.60
2010,08,15,08,38,21.60
2010,08,15,08,39,21.60
2010,08,15,08,40,21.60
2010,08,15,08,41,21.70
2010,08,15,08,42,21.70
2010,08,15,08,43,21.70
2010,08,15,08,44,21.70
2010,08,15,08,45,21.70
2010,08,15,08,46,21.80
2010,08,15,08,47,21.80
2010,08,15,08,48,21.80
2010,08,15,08,49,21.80
2010,08,15,08,50,21.90
2010,08,15,08,51,21.90
2010,08,15,08,52,21.90
2010,08,15,08,53,22.00
2010,08,15,08,54,22.00
2010,08,15,08,55,22.10
2010,08,15,08,56,22.10
2010,08,15,08,57,22.20
2010,08,15,08,58,22.20
2010,08,15,08,59,22.20
2010,08,15,09,00,22.30
2010,08,15,09,01,22.30
2010,08,15,09,02,22.30
2010,08,15,09,03,22.40
2010,08,15,09,04,22.40
2010,08,15,09,05,22.40
2010,08,15,09,06,22.50
2010,08,15,09,07,22.50
2010,08,15,09,08,22.50
2010,08,15,09,09,22.60
2010,08,15,09,10,22.70
2010,08,15,09,11,22.70
2010,08,15,09,12,22.70
2010,08,15,09,13,22.80
2010,08,15,09,14,22.80
2010,08,15,09,15,22.90
2010,08,15,09,16,23.00
2010,08,15,09,17,23.00
2010,08,15,09,18,23.10
2010,08,15,09,19,23.10
2010,08,15,09,20,23.20
2010,08,15,09,21,23.30
2010,08,15,09,22,23.30
2010,08,15,09,23,23.40
2010,08,15,09,24,23.40
2010,08,15,09,25,23.40
2010,08,15,09,26,23.40
2010,08,15,09,27,23.40
2010,08,15,09,28,23.40
2010,08,15,09,29,23.50
2010,08,15,09,30,23.50
2010,08,15,09,31,23.60
2010,08,15,09,32,23.60
2010,08,15,09,33,23.60
2010,08,15,09,34,23.60
2010,08,15,09,35,23.60
2010,08,15,09,36,23.60
2010,08,15,09,37,23.60
2010,08,15,09,38,23.70
2010,08,15,09,39,23.70
2010,08,15,09,40,23.70
2010,08,15,09,41,23.70
2010,08,15,09,42,23.70
2010,08,15,09,43,23.70
2010,08,15,09,44,23.70
2010,08,15,09,45,23.70
2010,08,15,09,46,23.80
2010,08,15,09,47,23.80
2010,08,15,09,48,23.80
2010,08,15,09,49,23.80
2010,08,15,09,50,23.80
2010,08,15,09,51,23.80
2010,08,15,09,52,23.90
2010,08,15,09,53,23.90
2010,08,15,09,54,24.00
2010,08,15,09,55,24.00
2010,08,15,09,56,24.00
2010,08,15,09,57,24.00
2010,08,15,09,58,24.00
2010,08,15,09,59,24.10
2010,08,15,10,00,24.10
2010,08,15,10,01,24.10
2010,08,15,10,02,24.10
2010,08,15,10,03,24.10
2010,08,15,10,04,24.10
2010,08,15,10,05,24.10
2010,08,15,10,06,24.20
2010,08,15,10,07,24.20
2010,08,15,10,08,24.30
2010,08,15,10,09,24.30
2010,08,15,10,10,24.30
2010,08,15,10,11,24.30
2010,08,15,10,12,24.40
2010,08,15,10,13,24.40
2010,08,15,10,14,24.40
2010,08,15,10,15,24.40
2010,08,15,10,16,24.50
2010,08,15,10,17,24.50
2010,08,15,10,18,24.50
2010,08,15,10,19,24.50
2010,08,15,10,20,24.60
2010,08,15,10,21,24.60
2010,08,15,10,22,24.60
2010,08,15,10,23,24.60
2010,08,15,10,24,24.60
2010,08,15,10,25,24.60
2010,08,15,10,26,24.60
2010,08,15,10,27,24.70
2010,08,15,10,28,24.70
2010,08,15,10,29,24.60
2010,08,15,10,30,24.60
2010,08,15,10,31,24.60
2010,08,15,10,32,24.70
2010,08,15,10,33,24.70
2010,08,15,10,34,24.80
2010,08,15,10,35,24.80
2010,08,15,10,36,24.90
2010,08,15,10,37,24.90
2010,08,15,10,38,24.90
2010,08,15,10,39,25.00
2010,08,15,10,40,25.00
2010,08,15,10,41,25.10
2010,08,15,10,42,25.20
2010,08,15,10,43,25.20
2010,08,15,10,44,25.20
2010,08,15,10,45,25.30
2010,08,15,10,46,25.30
2010,08,15,10,47,25.40
2010,08,15,10,48,25.50
2010,08,15,10,49,25.60
2010,08,15,10,50,25.60
2010,08,15,10,51,25.60
2010,08,15,10,52,25.60
2010,08,15,10,53,25.60
2010,08,15,10,54,25.60
2010,08,15,10,55,25.60
2010,08,15,10,56,25.70
2010,08,15,10,57,25.70
2010,08,15,10,58,25.80
2010,08,15,10,59,25.90
2010,08,15,11,00,25.90
2010,08,15,11,01,26.00
2010,08,15,11,02,26.10
2010,08,15,11,03,26.20
2010,08,15,11,04,26.20
2010,08,15,11,05,26.20
2010,08,15,11,06,26.20
2010,08,15,11,07,26.20
2010,08,15,11,08,26.20
2010,08,15,11,09,26.20
2010,08,15,11,10,26.20
2010,08,15,11,11,26.30
2010,08,15,11,12,26.30
2010,08,15,11,13,26.40
2010,08,15,11,14,26.50
2010,08,15,11,15,26.60
2010,08,15,11,16,26.60
2010,08,15,11,17,26.60
2010,08,15,11,18,26.50
2010,08,15,11,19,26.50
2010,08,15,11,20,26.50
2010,08,15,11,21,26.50
2010,08,15,11,22,26.50
2010,08,15,11,23,26.60
2010,08,15,11,24,26.60
2010,08,15,11,25,26.60
2010,08,15,11,26,26.60
2010,08,15,11,27,26.60
2010,08,15,11,28,26.60
2010,08,15,11,29,26.60
2010,08,15,11,30,26.70
2010,08,15,11,31,26.70
2010,08,15,11,32,26.70
2010,08,15,11,33,26.70
2010,08,15,11,34,26.70
2010,08,15,11,35,26.80
2010,08,15,11,36,26.80
2010,08,15,11,37,26.80
2010,08,15,11,38,26.80
2010,08,15,11,39,26.80
2010,08,15,11,40,26.80
2010,08,15,11,41,26.80
2010,08,15,11,42,26.80
2010,08,15,11,43,26.80
2010,08,15,11,44,26.80
2010,08,15,11,45,26.90
2010,08,15,11,46,26.90
2010,08,15,11,47,26.90
2010,08,15,11,48,26.90
2010,08,15,11,49,27.00
2010,08,15,11,50,27.00
2010,08,15,11,51,27.10
2010,08,15,11,52,27.20
2010,08,15,11,53,27.10
2010,08,15,11,54,27.20
2010,08,15,11,55,27.20
2010,08,15,11,56,27.20
2010,08,15,11,57,27.20
2010,08,15,11,58,27.20
2010,08,15,11,59,27.20
2010,08,15,12,00,27.20
2010,08,15,12,01,27.20
2010,08,15,12,02,27.20
2010,08,15,12,03,27.30
2010,08,15,12,04,27.30
2010,08,15,12,05,27.30
2010,08,15,12,06,27.30
2010,08,15,12,07,27.30
2010,08,15,12,08,27.30
2010,08,15,12,09,27.40
2010,08,15,12,10,27.40
2010,08,15,12,11,27.40
2010,08,15,12,12,27.50
2010,08,15,12,13,27.50
2010,08,15,12,14,27.60
2010,08,15,12,15,27.70
2010,08,15,12,16,27.70
2010,08,15,12,17,27.70
2010,08,15,12,18,27.70
2010,08,15,12,19,27.70
2010,08,15,12,20,27.70
2010,08,15,12,21,27.70
2010,08,15,12,22,27.70
2010,08,15,12,23,27.70
2010,08,15,12,24,27.70
2010,08,15,12,25,27.70
2010,08,15,12,26,27.80
2010,08,15,12,27,27.80
2010,08,15,12,28,27.90
2010,08,15,12,29,27.90
2010,08,15,12,30,28.00
2010,08,15,12,31,28.10
2010,08,15,12,32,28.20
2010,08,15,12,33,28.30
2010,08,15,12,34,28.30
2010,08,15,12,35,28.30
2010,08,15,12,36,28.40
2010,08,15,12,37,28.40
2010,08,15,12,38,28.50
2010,08,15,12,39,28.50
2010,08,15,12,40,28.50
2010,08,15,12,41,28.60
2010,08,15,12,42,28.60
2010,08,15,12,43,28.60
2010,08,15,12,44,28.60
2010,08,15,12,45,28.60
2010,08,15,12,46,28.70
2010,08,15,12,47,28.80
2010,08,15,12,48,28.80
2010,08,15,12,49,28.90
2010,08,15,12,50,28.90
2010,08,15,12,51,29.00
2010,08,15,12,52,29.00
2010,08,15,12,53,29.10
2010,08,15,12,54,29.10
2010,08,15,12,55,29.10
2010,08,15,12,56,29.10
2010,08,15,12,57,29.10
2010,08,15,12,58,29.00
2010,08,15,12,59,29.10
2010,08,15,13,00,29.10
2010,08,15,13,01,29.10
2010,08,15,13,02,29.00
2010,08,15,13,03,28.90
2010,08,15,13,04,28.80
2010,08,15,13,05,28.80
2010,08,15,13,06,28.80
2010,08,15,13,07,28.80
2010,08,15,13,08,28.80
2010,08,15,13,09,28.80
2010,08,15,13,10,28.80
2010,08,15,13,11,28.80
2010,08,15,13,12,28.90
2010,08,15,13,13,28.90
2010,08,15,13,14,29.00
2010,08,15,13,15,29.10
2010,08,15,13,16,29.20
2010,08,15,13,17,29.30
2010,08,15,13,18,29.30
2010,08,15,13,19,29.30
2010,08,15,13,20,29.30
2010,08,15,13,21,29.30
2010,08,15,13,22,29.30
2010,08,15,13,23,29.40
2010,08,15,13,24,29.40
2010,08,15,13,25,29.40
2010,08,15,13,26,29.30
2010,08,15,13,27,29.30
2010,08,15,13,28,29.30
2010,08,15,13,29,29.40
2010,08,15,13,30,29.50
2010,08,15,13,31,29.60
2010,08,15,13,32,29.70
2010,08,15,13,33,29.80
2010,08,15,13,34,29.80
2010,08,15,13,35,29.80
2010,08,15,13,36,29.80
2010,08,15,13,37,29.80
2010,08,15,13,38,29.80
2010,08,15,13,39,29.90
2010,08,15,13,40,29.90
2010,08,15,13,41,30.00
2010,08,15,13,42,30.00
2010,08,15,13,43,29.90
2010,08,15,13,44,29.90
2010,08,15,13,45,29.90
2010,08,15,13,46,29.90
2010,08,15,13,47,30.00
2010,08,15,13,48,30.10
2010,08,15,13,49,30.10
2010,08,15,13,50,30.20
2010,08,15,13,51,30.30
2010,08,15,13,52,30.30
2010,08,15,13,53,30.40
2010,08,15,13,54,30.40
2010,08,15,13,55,30.30
2010,08,15,13,56,30.30
2010,08,15,13,57,30.30
2010,08,15,13,58,30.30
2010,08,15,13,59,30.30
2010,08,15,14,00,30.30
2010,08,15,14,01,30.40
2010,08,15,14,02,30.50
2010,08,15,14,03,30.60
2010,08,15,14,04,30.60
2010,08,15,14,05,30.60
2010,08,15,14,06,30.60
2010,08,15,14,07,30.60
2010,08,15,14,08,30.60
2010,08,15,14,09,30.60
2010,08,15,14,10,30.60
2010,08,15,14,11,30.70
2010,08,15,14,12,30.70
2010,08,15,14,13,30.60
2010,08,15,14,14,30.60
2010,08,15,14,15,30.60
2010,08,15,14,16,30.50
2010,08,15,14,17,30.40
2010,08,15,14,18,30.40
2010,08,15,14,19,30.40
2010,08,15,14,20,30.40
2010,08,15,14,21,30.50
2010,08,15,14,22,30.50
2010,08,15,14,23,30.60
2010,08,15,14,24,30.60
2010,08,15,14,25,30.60
2010,08,15,14,26,30.70
2010,08,15,14,27,30.70
2010,08,15,14,28,30.70
2010,08,15,14,29,30.80
2010,08,15,14,30,30.80
2010,08,15,14,31,30.80
2010,08,15,14,32,30.80
2010,08,15,14,33,30.80
2010,08,15,14,34,30.90
2010,08,15,14,35,30.90
2010,08,15,14,36,30.90
2010,08,15,14,37,30.90
2010,08,15,14,38,30.90
2010,08,15,14,39,30.90
2010,08,15,14,40,30.80
2010,08,15,14,41,30.80
2010,08,15,14,42,30.70
2010,08,15,14,43,30.60
2010,08,15,14,44,30.60
2010,08,15,14,45,30.60
2010,08,15,14,46,30.60
2010,08,15,14,47,30.60
2010,08,15,14,48,30.70
2010,08,15,14,49,30.70
2010,08,15,14,50,30.70
2010,08,15,14,51,30.70
2010,08,15,14,52,30.80
2010,08,15,14,53,30.90
2010,08,15,14,54,31.00
2010,08,15,14,55,31.10
2010,08,15,14,56,31.10
2010,08,15,14,57,31.10
2010,08,15,14,58,31.10
2010,08,15,14,59,31.10
2010,08,15,15,00,31.20
2010,08,15,15,01,31.20
2010,08,15,15,02,31.30
2010,08,15,15,03,31.40
2010,08,15,15,04,31.40
2010,08,15,15,05,31.50
2010,08,15,15,06,31.50
2010,08,15,15,07,31.50
2010,08,15,15,08,31.50
2010,08,15,15,09,31.50
2010,08,15,15,10,31.50
2010,08,15,15,11,31.50
2010,08,15,15,12,31.60
2010,08,15,15,13,31.60
2010,08,15,15,14,31.60
2010,08,15,15,15,31.60
2010,08,15,15,16,31.70
2010,08,15,15,17,31.70
2010,08,15,15,18,31.80
2010,08,15,15,19,31.80
2010,08,15,15,20,31.80
2010,08,15,15,21,31.80
2010,08,15,15,22,31.80
2010,08,15,15,23,31.80
2010,08,15,15,24,31.80
2010,08,15,15,25,31.80
2010,08,15,15,26,31.80
2010,08,15,15,27,31.80
2010,08,15,15,28,31.80
2010,08,15,15,29,31.80
2010,08,15,15,30,31.90
2010,08,15,15,31,31.90
2010,08,15,15,32,31.90
2010,08,15,15,33,31.90
2010,08,15,15,34,32.00
2010,08,15,15,35,32.00
2010,08,15,15,36,32.10
2010,08,15,15,37,32.10
2010,08,15,15,38,32.10
2010,08,15,15,39,32.10
2010,08,15,15,40,32.00
2010,08,15,15,41,31.90
2010,08,15,15,42,31.90
2010,08,15,15,43,31.90
2010,08,15,15,44,31.90
2010,08,15,15,45,31.90
2010,08,15,15,46,32.00
2010,08,15,15,47,32.00
2010,08,15,15,48,32.10
2010,08,15,15,49,32.00
2010,08,15,15,50,32.00
2010,08,15,15,51,32.00
2010,08,15,15,52,32.00
2010,08,15,15,53,32.00
2010,08,15,15,54,32.10
2010,08,15,15,55,32.10
2010,08,15,15,56,32.10
2010,08,15,15,57,32.10
2010,08,15,15,58,32.10
2010,08,15,15,59,32.10
2010,08,15,16,00,32.10
2010,08,15,16,01,32.10
2010,08,15,16,02,32.20
2010,08,15,16,03,32.20
2010,08,15,16,04,32.20
2010,08,15,16,05,32.20
2010,08,15,16,06,32.30
2010,08,15,16,07,32.30
2010,08,15,16,08,32.30
2010,08,15,16,09,32.30
2010,08,15,16,10,32.30
2010,08,15,16,11,32.30
2010,08,15,16,12,32.30
2010,08,15,16,13,32.40
2010,08,15,16,14,32.40
2010,08,15,16,15,32.40
2010,08,15,16,16,32.40
2010,08,15,16,17,32.40
2010,08,15,16,18,32.50
2010,08,15,16,19,32.60
2010,08,15,16,20,32.60
2010,08,15,16,21,32.60
2010,08,15,16,22,32.70
2010,08,15,16,23,32.70
2010,08,15,16,24,32.70
2010,08,15,16,25,32.80
2010,08,15,16,26,32.80
2010,08,15,16,27,32.80
2010,08,15,16,28,32.80
2010,08,15,16,29,32.80
2010,08,15,16,30,32.90
2010,08,15,16,31,32.90
2010,08,15,16,32,32.90
2010,08,15,16,33,32.90
2010,08,15,16,34,32.90
2010,08,15,16,35,33.00
2010,08,15,16,36,33.00
2010,08,15,16,37,33.00
2010,08,15,16,38,32.90
2010,08,15,16,39,32.90
2010,08,15,16,40,32.90
2010,08,15,16,41,32.80
2010,08,15,16,42,32.70
2010,08,15,16,43,32.70
2010,08,15,16,44,32.60
2010,08,15,16,45,32.60
2010,08,15,16,46,32.50
2010,08,15,16,47,32.50
2010,08,15,16,48,32.40
2010,08,15,16,49,32.40
2010,08,15,16,50,32.40
2010,08,15,16,51,32.40
2010,08,15,16,52,32.40
2010,08,15,16,53,32.40
2010,08,15,16,54,32.40
2010,08,15,16,55,32.40
2010,08,15,16,56,32.40
2010,08,15,16,57,32.40
2010,08,15,16,58,32.40
2010,08,15,16,59,32.40
2010,08,15,17,00,32.40
2010,08,15,17,01,32.40
2010,08,15,17,02,32.40
2010,08,15,17,03,32.40
2010,08,15,17,04,32.50
2010,08,15,17,05,32.50
2010,08,15,17,06,32.60
2010,08,15,17,07,32.60
2010,08,15,17,08,32.60
2010,08,15,17,09,32.70
2010,08,15,17,10,32.70
2010,08,15,17,11,32.70
2010,08,15,17,12,32.70
2010,08,15,17,13,32.60
2010,08,15,17,14,32.60
2010,08,15,17,15,32.50
2010,08,15,17,16,32.40
2010,08,15,17,17,32.30
2010,08,15,17,18,32.20
2010,08,15,17,19,32.20